| time (UTC) | temp C | wind direction | speed KPH | gust KPH | rain 1hr cm | rain 24hr cm | rain mn cm | humidity % | barometer mb |
| 20260510204308 | 20 | 147 | 0.0 | 0.0 | 0.00 | 0.66 | 0.00 | 70 | 1014.1 |
| 20260510203807 | 20 | 149 | 0.0 | 1.6 | 0.00 | 0.69 | 0.00 | 71 | 1014.1 |
| 20260510202306 | 20 | 171 | 0.0 | 1.6 | 0.00 | 0.69 | 0.00 | 72 | 1014.2 |
| 20260510201804 | 20 | 123 | 0.0 | 4.8 | 0.00 | 0.69 | 0.00 | 72 | 1014.1 |
| 20260510201304 | 20 | 121 | 0.0 | 4.8 | 0.00 | 0.69 | 0.00 | 73 | 1014.1 |
| 20260510200804 | 20 | 172 | 0.0 | 0.0 | 0.00 | 0.69 | 0.00 | 72 | 1014.2 |
| 20260510200303 | 20 | 120 | 0.0 | 0.0 | 0.00 | 0.71 | 0.00 | 73 | 1014.0 |
| 20260510195803 | 20 | 139 | 0.0 | 1.6 | 0.00 | 0.71 | 0.00 | 71 | 1014.0 |
| 20260510195306 | 20 | 114 | 0.0 | 1.6 | 0.00 | 0.74 | 0.00 | 72 | 1014.0 |
| 20260510194302 | 20 | 99 | 0.0 | 11.3 | 0.00 | 0.76 | 0.00 | 72 | 1014.3 |
| 20260510193759 | 20 | 112 | 0.0 | 3.2 | 0.00 | 0.76 | 0.00 | 73 | 1014.4 |
| 20260510193259 | 20 | 151 | 0.0 | 3.2 | 0.00 | 0.76 | 0.00 | 74 | 1014.4 |
| 20260510192752 | 19 | 92 | 0.0 | 3.2 | 0.00 | 0.79 | 0.00 | 74 | 1014.4 |
| 20260510192244 | 19 | 165 | 0.0 | 1.6 | 0.00 | 0.81 | 0.00 | 77 | 1014.5 |
| 20260510191739 | 18 | 194 | 0.0 | 1.6 | 0.00 | 0.89 | 0.00 | 76 | 1014.5 |
| 20260510191233 | 18 | 121 | 0.0 | 1.6 | 0.00 | 0.94 | 0.00 | 76 | 1014.5 |
| 20260510190219 | 18 | 217 | 0.0 | 1.6 | 0.00 | 1.02 | 0.00 | 75 | 1014.6 |
| 20260510185713 | 18 | 180 | 0.0 | 0.0 | 0.00 | 1.02 | 0.00 | 76 | 1014.7 |
| 20260510185207 | 18 | 152 | 0.0 | 0.0 | 0.00 | 1.04 | 0.00 | 75 | 1014.7 |
| 20260510184701 | 19 | 139 | 0.0 | 0.0 | 0.00 | 1.07 | 0.00 | 74 | 1014.6 |
| 20260510184156 | 19 | 198 | 0.0 | 0.0 | 0.00 | 1.07 | 0.00 | 75 | 1014.6 |
| 20260510183649 | 19 | 137 | 0.0 | 0.0 | 0.00 | 1.07 | 0.00 | 74 | 1014.7 |
| 20260510183143 | 19 | 134 | 0.0 | 0.0 | 0.00 | 1.07 | 0.00 | 73 | 1014.5 |
| 20260510182637 | 19 | 120 | 0.0 | 0.0 | 0.00 | 1.07 | 0.00 | 74 | 1014.5 |
| 20260510182131 | 19 | 193 | 0.0 | 0.0 | 0.00 | 1.07 | 0.00 | 72 | 1014.6 |
| 20260510181624 | 19 | 124 | 0.0 | 0.0 | 0.00 | 1.07 | 0.00 | 72 | 1014.5 |
| 20260510181119 | 20 | 121 | 0.0 | 1.6 | 0.00 | 1.07 | 0.00 | 70 | 1014.6 |
| 20260510180613 | 20 | 57 | 0.0 | 1.6 | 0.00 | 1.07 | 0.00 | 68 | 1014.6 |
| 20260510175055 | 20 | 177 | 0.0 | 8.0 | 0.00 | 1.07 | 0.00 | 68 | 1014.6 |
| 20260510174549 | 20 | 181 | 0.0 | 8.0 | 0.00 | 1.07 | 0.00 | 71 | 1014.4 |
| 20260510174043 | 20 | 207 | 0.0 | 6.4 | 0.00 | 1.07 | 0.00 | 70 | 1014.5 |
| 20260510173537 | 20 | 148 | 0.0 | 6.4 | 0.00 | 1.07 | 0.00 | 71 | 1014.4 |
| 20260510173031 | 20 | 144 | 0.0 | 4.8 | 0.00 | 1.07 | 0.00 | 71 | 1014.4 |
| 20260510172525 | 20 | 206 | 0.0 | 1.6 | 0.00 | 1.07 | 0.00 | 72 | 1014.5 |
| 20260510172019 | 20 | 120 | 0.0 | 1.6 | 0.00 | 1.07 | 0.00 | 70 | 1014.6 |
| 20260510171007 | 20 | 148 | 0.0 | 1.6 | 0.00 | 1.07 | 0.00 | 73 | 1014.3 |
| 20260510170501 | 19 | 245 | 0.0 | 1.6 | 0.00 | 1.07 | 0.00 | 74 | 1014.4 |
| 20260510165955 | 18 | 205 | 0.0 | 1.6 | 0.00 | 1.07 | 0.00 | 73 | 1014.3 |
| 20260510165452 | 18 | 309 | 0.0 | 0.0 | 0.00 | 1.07 | 0.00 | 75 | 1014.1 |
| 20260510164952 | 18 | 128 | 0.0 | 0.0 | 0.00 | 1.07 | 0.00 | 74 | 1014.1 |
| 20260510164450 | 18 | 168 | 0.0 | 0.0 | 0.00 | 1.07 | 0.00 | 73 | 1014.2 |
| 20260510163950 | 18 | 354 | 0.0 | 3.2 | 0.00 | 1.07 | 0.00 | 75 | 1014.4 |
| 20260510163451 | 18 | 139 | 0.0 | 3.2 | 0.00 | 1.07 | 0.00 | 74 | 1014.5 |
| 20260510162950 | 18 | 146 | 0.0 | 1.6 | 0.00 | 1.07 | 0.00 | 77 | 1014.7 |
| 20260510162451 | 18 | 114 | 0.0 | 4.8 | 0.00 | 1.07 | 0.00 | 77 | 1014.9 |
| 20260510161952 | 18 | 146 | 0.0 | 4.8 | 0.00 | 1.07 | 0.00 | 76 | 1014.8 |
| 20260510161451 | 18 | 128 | 0.0 | 0.0 | 0.00 | 1.07 | 0.00 | 76 | 1014.7 |
| 20260510160446 | 18 | 155 | 0.0 | 0.0 | 0.00 | 1.07 | 0.00 | 78 | 1014.8 |
| 20260510155945 | 18 | 178 | 0.0 | 0.0 | 0.00 | 1.07 | 0.00 | 81 | 1014.8 |
| 20260510154940 | 17 | 197 | 0.0 | 1.6 | 0.00 | 1.07 | 0.00 | 81 | 1014.7 |
| 20260510154441 | 17 | 198 | 0.0 | 1.6 | 0.00 | 1.07 | 0.00 | 80 | 1014.6 |
| 20260510153941 | 17 | 131 | 0.0 | 1.6 | 0.00 | 1.07 | 0.00 | 80 | 1014.6 |
| 20260510153441 | 17 | 137 | 0.0 | 1.6 | 0.00 | 1.07 | 0.00 | 82 | 1014.7 |
| 20260510152940 | 17 | 207 | 0.0 | 1.6 | 0.00 | 1.07 | 0.00 | 82 | 1014.8 |
| 20260510151933 | 16 | 141 | 0.0 | 3.2 | 0.00 | 1.07 | 0.00 | 84 | 1015.1 |
| 20260510151428 | 16 | 156 | 0.0 | 3.2 | 0.00 | 1.07 | 0.00 | 84 | 1015.1 |
| 20260510150927 | 16 | 115 | 0.0 | 3.2 | 0.00 | 1.07 | 0.00 | 84 | 1015.1 |
| 20260510145926 | 16 | 124 | 0.0 | 0.0 | 0.00 | 1.07 | 0.00 | 88 | 1015.0 |
| 20260510144924 | 15 | 140 | 0.0 | 1.6 | 0.00 | 1.07 | 0.00 | 90 | 1015.0 |
| 20260510144425 | 15 | 136 | 0.0 | 0.0 | 0.00 | 1.07 | 0.00 | 92 | 1015.0 |
| 20260510143923 | 15 | 179 | 0.0 | 0.0 | 0.00 | 1.07 | 0.00 | 92 | 1014.9 |
| 20260510143425 | 14 | 238 | 0.0 | 0.0 | 0.00 | 1.07 | 0.00 | 93 | 1014.9 |
| 20260510142924 | 14 | 160 | 0.0 | 0.0 | 0.00 | 1.07 | 0.00 | 95 | 1014.8 |
| 20260510142423 | 13 | 151 | 0.0 | 0.0 | 0.00 | 1.07 | 0.00 | 96 | 1014.7 |
| 20260510141425 | 13 | 155 | 0.0 | 0.0 | 0.00 | 1.07 | 0.00 | 96 | 1014.7 |
| 20260510140924 | 13 | 166 | 0.0 | 0.0 | 0.00 | 1.07 | 0.00 | 96 | 1014.8 |
| 20260510140423 | 13 | 200 | 0.0 | 0.0 | 0.00 | 1.07 | 0.00 | 97 | 1014.7 |
| 20260510135924 | 12 | 218 | 0.0 | 0.0 | 0.00 | 1.07 | 0.00 | 97 | 1014.8 |
| 20260510135424 | 12 | 295 | 0.0 | 0.0 | 0.00 | 1.07 | 0.00 | 97 | 1014.9 |
| 20260510134925 | 12 | 22 | 0.0 | 0.0 | 0.00 | 1.07 | 0.00 | 97 | 1014.7 |
| 20260510134423 | -17 | 0.0 | 0.0 | 0.00 | 1.07 | 0.00 | 1014.7 | ||
| 20260510133917 | -17 | 0.0 | 0.0 | 0.00 | 1.07 | 0.00 | 1014.8 | ||
| 20260510133419 | -17 | 0.0 | 0.0 | 0.00 | 1.07 | 0.00 | 1014.7 | ||
| 20260510132827 | -17 | 0.0 | 0.0 | 0.00 | 1.07 | 0.00 | 1014.6 | ||
| 20260510132323 | -17 | 0.0 | 0.0 | 0.00 | 1.07 | 0.00 | 1014.6 | ||
| 20260510131816 | -17 | 0.0 | 0.0 | 0.00 | 1.07 | 0.00 | 1014.4 | ||
| 20260510131317 | -17 | 0.0 | 0.0 | 0.00 | 1.07 | 0.00 | 1014.4 | ||
| 20260510130815 | -17 | 0.0 | 0.0 | 0.00 | 1.07 | 0.00 | 1014.5 | ||
| 20260510130227 | -17 | 0.0 | 0.0 | 0.00 | 1.07 | 0.00 | 1014.4 | ||
| 20260510125722 | -17 | 0.0 | 0.0 | 0.00 | 1.07 | 0.00 | 1014.4 | ||
| 20260510124621 | -17 | 0.0 | 0.0 | 0.00 | 1.07 | 0.00 | 1014.4 | ||
| 20260510124119 | -17 | 0.0 | 0.0 | 0.00 | 1.07 | 0.00 | 1014.4 | ||
| 20260510123526 | -17 | 0.0 | 0.0 | 0.00 | 1.07 | 0.00 | 1014.4 | ||
| 20260510123021 | -17 | 0.0 | 0.0 | 0.00 | 1.07 | 0.00 | 1014.3 | ||
| 20260510122520 | -17 | 0.0 | 0.0 | 0.00 | 1.07 | 0.00 | 1014.3 | ||
| 20260510122012 | -17 | 0.0 | 0.0 | 0.00 | 1.07 | 0.00 | 1014.3 | ||
| 20260510121423 | -17 | 0.0 | 0.0 | 0.00 | 1.07 | 0.00 | 1014.1 | ||
| 20260510120920 | -17 | 0.0 | 0.0 | 0.00 | 1.07 | 0.00 | 1014.1 | ||
| 20260510120413 | -17 | 0.0 | 0.0 | 0.00 | 1.07 | 0.00 | 1014.1 | ||
| 20260510115821 | -17 | 0.0 | 0.0 | 0.00 | 1.07 | 0.00 | 1014.2 | ||
| 20260510115317 | -17 | 0.0 | 0.0 | 0.00 | 1.07 | 0.00 | 1014.0 | ||
| 20260510114813 | -17 | 0.0 | 0.0 | 0.00 | 1.07 | 0.00 | 1013.9 | ||
| 20260510114226 | -17 | 0.0 | 0.0 | 0.00 | 1.07 | 0.00 | 1013.9 | ||
| 20260510113217 | -17 | 0.0 | 0.0 | 0.00 | 1.07 | 0.00 | 1013.9 | ||
| 20260510112716 | -17 | 0.0 | 0.0 | 0.00 | 1.07 | 0.00 | 1013.8 | ||
| 20260510112124 | -17 | 0.0 | 0.0 | 0.00 | 1.07 | 0.00 | 1013.7 | ||
| 20260510111617 | -17 | 0.0 | 0.0 | 0.00 | 1.07 | 0.00 | 1013.6 | ||
| 20260510111116 | -17 | 0.0 | 0.0 | 0.00 | 1.07 | 0.00 | 1013.6 | ||
| 20260510110518 | -17 | 0.0 | 0.0 | 0.00 | 1.07 | 0.00 | 1013.4 | ||
| 20260510110019 | -17 | 0.0 | 0.0 | 0.00 | 1.07 | 0.00 | 1013.5 | ||
| 20260510105513 | -17 | 0.0 | 0.0 | 0.00 | 1.07 | 0.00 | 1013.7 | ||
| 20260510104924 | -17 | 0.0 | 0.0 | 0.00 | 1.07 | 0.00 | 1013.8 | ||
| 20260510104418 | -17 | 0.0 | 0.0 | 0.00 | 1.07 | 0.00 | 1013.5 | ||
| 20260510103913 | -17 | 0.0 | 0.0 | 0.00 | 1.07 | 0.00 | 1013.6 | ||
| 20260510103327 | -17 | 0.0 | 0.0 | 0.00 | 1.07 | 0.00 | 1013.4 | ||
| 20260510102824 | -17 | 0.0 | 0.0 | 0.00 | 1.07 | 0.00 | 1013.4 | ||
| 20260510102319 | -17 | 0.0 | 0.0 | 0.00 | 1.07 | 0.00 | 1013.4 | ||
| 20260510101821 | -17 | 0.0 | 0.0 | 0.00 | 1.07 | 0.00 | 1013.2 | ||
| 20260510100727 | -17 | 0.0 | 0.0 | 0.00 | 1.07 | 0.00 | 1013.3 | ||
| 20260510100221 | -17 | 0.0 | 0.0 | 0.00 | 1.07 | 0.00 | 1013.3 | ||
| 20260510095718 | -17 | 0.0 | 0.0 | 0.00 | 1.07 | 0.00 | 1013.3 | ||
| 20260510092424 | -17 | 0.0 | 0.0 | 0.00 | 1.07 | 0.00 | 1013.4 | ||
| 20260510091324 | -17 | 0.0 | 0.0 | 0.00 | 1.07 | 0.00 | 1013.4 | ||
| 20260510090817 | -17 | 0.0 | 0.0 | 0.00 | 1.07 | 0.00 | 1013.2 | ||
| 20260510090319 | -17 | 0.0 | 0.0 | 0.00 | 1.07 | 0.00 | 1013.3 | ||
| 20260510084622 | -17 | 0.0 | 0.0 | 0.00 | 1.07 | 0.00 | 1013.4 | ||
| 20260510084116 | -17 | 0.0 | 0.0 | 0.00 | 1.07 | 0.00 | 1013.5 | ||
| 20260510083518 | -17 | 0.0 | 0.0 | 0.00 | 1.07 | 0.00 | 1013.5 | ||
| 20260510083018 | -17 | 0.0 | 0.0 | 0.00 | 1.07 | 0.00 | 1013.6 | ||
| 20260510082516 | -17 | 0.0 | 0.0 | 0.00 | 1.07 | 0.00 | 1013.6 | ||
| 20260510081924 | -17 | 0.0 | 0.0 | 0.00 | 1.07 | 0.00 | 1013.6 | ||
| 20260510081411 | -17 | 0.0 | 0.0 | 0.00 | 1.07 | 0.00 | 1013.6 | ||
| 20260510080816 | -17 | 0.0 | 0.0 | 0.00 | 1.07 | 0.00 | 1013.6 | ||
| 20260510080221 | -17 | 0.0 | 0.0 | 0.00 | 1.07 | 0.00 | 1013.4 | ||
| 20260510075218 | -17 | 0.0 | 0.0 | 0.00 | 1.07 | 0.00 | 1013.3 | ||
| 20260510074714 | -17 | 0.0 | 0.0 | 0.00 | 1.07 | 0.00 | 1013.3 | ||
| 20260510074213 | -17 | 161 | 0.0 | 0.0 | 0.00 | 1.07 | 0.00 | 1013.5 | |
| 20260510073712 | 10 | 161 | 0.0 | 0.0 | 0.00 | 1.07 | 0.00 | 97 | 1013.2 |
| 20260510073127 | 10 | 161 | 0.0 | 0.0 | 0.00 | 1.07 | 0.00 | 97 | 1013.1 |
| 20260510071615 | 10 | 162 | 0.0 | 0.0 | 0.00 | 1.07 | 0.00 | 97 | 1013.0 |
| 20260510071116 | 10 | 162 | 0.0 | 0.0 | 0.00 | 1.07 | 0.00 | 97 | 1013.1 |
| 20260510070116 | 10 | 162 | 0.0 | 0.0 | 0.00 | 1.07 | 0.00 | 97 | 1013.0 |
| 20260510065612 | 10 | 162 | 0.0 | 0.0 | 0.00 | 1.07 | 0.00 | 97 | 1013.1 |
| 20260510065111 | 10 | 162 | 0.0 | 0.0 | 0.00 | 1.07 | 0.00 | 97 | 1013.1 |
| 20260510064611 | 10 | 162 | 0.0 | 0.0 | 0.00 | 1.07 | 0.00 | 97 | 1013.1 |
| 20260510064111 | 10 | 162 | 0.0 | 0.0 | 0.00 | 1.07 | 0.00 | 97 | 1013.2 |
| 20260510063611 | 10 | 162 | 0.0 | 0.0 | 0.00 | 1.07 | 0.00 | 97 | 1013.3 |
| 20260510063110 | 10 | 162 | 0.0 | 0.0 | 0.00 | 1.07 | 0.00 | 97 | 1013.2 |
| 20260510062612 | 10 | 162 | 0.0 | 0.0 | 0.00 | 1.07 | 0.00 | 97 | 1013.2 |
| 20260510061609 | 10 | 162 | 0.0 | 0.0 | 0.00 | 1.07 | 0.00 | 97 | 1013.2 |
| 20260510061108 | 10 | 162 | 0.0 | 0.0 | 0.00 | 1.07 | 0.00 | 97 | 1013.1 |
| 20260510060608 | 10 | 162 | 0.0 | 0.0 | 0.00 | 1.07 | 0.00 | 97 | 1013.1 |
| 20260510055600 | 10 | 162 | 0.0 | 0.0 | 0.00 | 1.07 | 0.00 | 97 | 1012.8 |
| 20260510054043 | 10 | 167 | 0.0 | 0.0 | 0.00 | 1.07 | 0.00 | 97 | 1012.9 |
| 20260510053537 | 10 | 167 | 0.0 | 0.0 | 0.00 | 1.07 | 0.00 | 97 | 1012.9 |
| 20260510053031 | 10 | 167 | 0.0 | 0.0 | 0.00 | 1.07 | 0.00 | 97 | 1012.9 |
| 20260510052524 | 10 | 167 | 0.0 | 0.0 | 0.00 | 1.07 | 0.00 | 97 | 1012.9 |
| 20260510052019 | 10 | 167 | 0.0 | 0.0 | 0.00 | 1.07 | 0.00 | 97 | 1013.1 |
| 20260510051019 | 10 | 167 | 0.0 | 0.0 | 0.00 | 1.07 | 0.00 | 97 | 1012.9 |
| 20260510050520 | 10 | 167 | 0.0 | 0.0 | 0.00 | 1.07 | 0.00 | 97 | 1013.0 |
| 20260510050018 | 10 | 167 | 0.0 | 0.0 | 0.00 | 1.07 | 0.00 | 97 | 1013.0 |
| 20260510045514 | 10 | 167 | 0.0 | 0.0 | 0.00 | 1.07 | 0.00 | 97 | 1013.0 |
| 20260510045014 | 10 | 167 | 0.0 | 0.0 | 0.00 | 1.07 | 0.00 | 97 | 1013.0 |
| 20260510044516 | 10 | 167 | 0.0 | 0.0 | 0.00 | 1.07 | 0.00 | 97 | 1013.0 |
| 20260510044012 | 10 | 167 | 0.0 | 0.0 | 0.00 | 1.07 | 0.00 | 97 | 1013.0 |
| 20260510043513 | 10 | 167 | 0.0 | 0.0 | 0.00 | 1.07 | 0.00 | 97 | 1013.1 |
| 20260510043013 | 10 | 167 | 0.0 | 0.0 | 0.00 | 1.07 | 0.00 | 97 | 1013.1 |
| 20260510042511 | 10 | 139 | 0.0 | 0.0 | 0.00 | 1.07 | 0.00 | 97 | 1013.0 |
| 20260510042009 | 10 | 139 | 0.0 | 0.0 | 0.00 | 1.07 | 0.00 | 97 | 1012.9 |
| 20260510041507 | 10 | 139 | 0.0 | 0.0 | 0.00 | 1.07 | 0.00 | 97 | 1012.9 |
| 20260510041004 | 10 | 139 | 0.0 | 0.0 | 0.00 | 1.07 | 0.00 | 97 | 1012.9 |
| 20260510040502 | 10 | 139 | 0.0 | 0.0 | 0.00 | 1.07 | 0.00 | 97 | 1012.9 |
| 20260510040000 | 10 | 127 | 0.0 | 0.0 | 0.00 | 1.07 | 1.07 | 97 | 1012.9 |
| 20260510035458 | 10 | 127 | 0.0 | 0.0 | 0.00 | 1.07 | 1.07 | 97 | 1012.8 |
| 20260510034959 | 10 | 127 | 0.0 | 0.0 | 0.00 | 1.07 | 1.07 | 97 | 1012.7 |
| 20260510034457 | 10 | 127 | 0.0 | 0.0 | 0.00 | 1.07 | 1.07 | 97 | 1012.7 |
| 20260510033955 | 10 | 127 | 0.0 | 0.0 | 0.00 | 1.07 | 1.07 | 96 | 1012.6 |
| 20260510032948 | 10 | 127 | 0.0 | 0.0 | 0.00 | 1.07 | 1.07 | 97 | 1012.9 |
| 20260510032445 | 10 | 127 | 0.0 | 0.0 | 0.00 | 1.07 | 1.07 | 97 | 1012.8 |
| 20260510031941 | 10 | 127 | 0.0 | 0.0 | 0.00 | 1.07 | 1.07 | 96 | 1012.9 |
| 20260510031441 | 10 | 127 | 0.0 | 0.0 | 0.00 | 1.07 | 1.07 | 96 | 1013.0 |
| 20260510030943 | 10 | 170 | 0.0 | 0.0 | 0.00 | 1.07 | 1.07 | 96 | 1013.0 |
| 20260510025943 | 10 | 170 | 0.0 | 0.0 | 0.00 | 1.07 | 1.07 | 97 | 1013.0 |
| 20260510025443 | 10 | 170 | 0.0 | 0.0 | 0.00 | 1.07 | 1.07 | 97 | 1013.1 |
| 20260510024941 | 10 | 170 | 0.0 | 0.0 | 0.00 | 1.07 | 1.07 | 96 | 1013.2 |
| 20260510024442 | 10 | 217 | 0.0 | 0.0 | 0.00 | 1.07 | 1.07 | 96 | 1013.1 |
| 20260510023942 | 10 | 240 | 0.0 | 0.0 | 0.00 | 1.07 | 1.07 | 97 | 1013.1 |
| 20260510022941 | 10 | 240 | 0.0 | 0.0 | 0.00 | 1.07 | 1.07 | 97 | 1013.1 |
| 20260510022443 | 10 | 240 | 0.0 | 0.0 | 0.00 | 1.07 | 1.07 | 97 | 1013.1 |
| 20260510020943 | 10 | 169 | 0.0 | 0.0 | 0.00 | 1.07 | 1.07 | 96 | 1013.0 |
| 20260510020443 | 10 | 169 | 0.0 | 0.0 | 0.00 | 1.07 | 1.07 | 96 | 1012.8 |
| 20260510015442 | 10 | 169 | 0.0 | 0.0 | 0.00 | 1.07 | 1.07 | 97 | 1012.9 |
| 20260510014441 | 10 | 169 | 0.0 | 0.0 | 0.00 | 1.07 | 1.07 | 96 | 1012.9 |
| 20260510013942 | 10 | 169 | 0.0 | 0.0 | 0.00 | 1.07 | 1.07 | 96 | 1012.8 |
| 20260510013441 | 10 | 169 | 0.0 | 0.0 | 0.00 | 1.07 | 1.07 | 96 | 1012.8 |
| 20260510012941 | 10 | 169 | 0.0 | 0.0 | 0.00 | 1.07 | 1.07 | 96 | 1012.8 |
| 20260510012442 | 10 | 169 | 0.0 | 0.0 | 0.00 | 1.07 | 1.07 | 96 | 1012.7 |
| 20260510011441 | 10 | 169 | 0.0 | 0.0 | 0.00 | 1.07 | 1.07 | 96 | 1012.8 |
| 20260510010936 | 10 | 169 | 0.0 | 0.0 | 0.00 | 1.07 | 1.07 | 96 | 1012.8 |
| 20260510005936 | 11 | 169 | 0.0 | 0.0 | 0.00 | 1.07 | 1.07 | 96 | 1012.4 |
| 20260510005437 | 11 | 169 | 0.0 | 0.0 | 0.00 | 1.07 | 1.07 | 96 | 1012.4 |
| 20260510003924 | 11 | 169 | 0.0 | 0.0 | 0.00 | 1.07 | 1.07 | 96 | 1012.3 |
| 20260510003418 | 11 | 169 | 0.0 | 0.0 | 0.00 | 1.07 | 1.07 | 96 | 1012.3 |
| 20260510002912 | 11 | 169 | 0.0 | 0.0 | 0.00 | 1.07 | 1.07 | 96 | 1012.3 |
| 20260510001901 | 11 | 169 | 0.0 | 0.0 | 0.00 | 1.07 | 1.07 | 96 | 1012.2 |
| 20260510001354 | 11 | 169 | 0.0 | 0.0 | 0.00 | 1.07 | 1.07 | 96 | 1012.1 |
| 20260510000342 | 11 | 169 | 0.0 | 0.0 | 0.00 | 1.07 | 1.07 | 96 | 1011.9 |
| 20260509235836 | 11 | 169 | 0.0 | 0.0 | 0.00 | 1.07 | 1.07 | 95 | 1011.9 |
| 20260509235330 | 11 | 169 | 0.0 | 0.0 | 0.00 | 1.07 | 1.07 | 95 | 1012.0 |
| 20260509234823 | 11 | 130 | 0.0 | 0.0 | 0.00 | 1.07 | 1.07 | 95 | 1012.1 |
| 20260509234318 | 11 | 214 | 0.0 | 0.0 | 0.00 | 1.07 | 1.07 | 96 | 1012.1 |
| 20260509233808 | 11 | 214 | 0.0 | 0.0 | 0.00 | 1.07 | 1.07 | 96 | 1012.1 |
| 20260509233302 | 11 | 214 | 0.0 | 0.0 | 0.00 | 1.07 | 1.07 | 96 | 1012.1 |
| 20260509232755 | 11 | 214 | 0.0 | 0.0 | 0.00 | 1.07 | 1.07 | 96 | 1012.1 |
| 20260509232250 | 11 | 252 | 0.0 | 0.0 | 0.03 | 1.07 | 1.07 | 96 | 1012.3 |
| 20260509231744 | 11 | 236 | 0.0 | 0.0 | 0.03 | 1.07 | 1.07 | 96 | 1012.4 |
| 20260509231238 | 11 | 146 | 0.0 | 0.0 | 0.03 | 1.07 | 1.07 | 95 | 1012.2 |
| 20260509230733 | 11 | 146 | 0.0 | 0.0 | 0.08 | 1.07 | 1.07 | 95 | 1012.2 |
| 20260509230226 | 11 | 165 | 0.0 | 0.0 | 0.13 | 1.07 | 1.07 | 95 | 1012.4 |
| 20260509225720 | 11 | 165 | 0.0 | 0.0 | 0.15 | 1.07 | 1.07 | 95 | 1012.4 |
| 20260509225214 | 11 | 165 | 0.0 | 0.0 | 0.20 | 1.07 | 1.07 | 95 | 1012.5 |
| 20260509224708 | 11 | 165 | 0.0 | 0.0 | 0.20 | 1.07 | 1.07 | 95 | 1012.5 |
| 20260509224202 | 11 | 165 | 0.0 | 0.0 | 0.28 | 1.07 | 1.07 | 95 | 1012.4 |
| 20260509223656 | 11 | 165 | 0.0 | 0.0 | 0.33 | 1.07 | 1.07 | 95 | 1012.4 |
| 20260509223150 | 11 | 165 | 0.0 | 0.0 | 0.38 | 1.07 | 1.07 | 95 | 1012.5 |
| 20260509222644 | 11 | 203 | 0.0 | 0.0 | 0.43 | 1.07 | 1.07 | 95 | 1012.6 |
| 20260509222139 | 11 | 203 | 0.0 | 0.0 | 0.46 | 1.04 | 1.04 | 95 | 1012.7 |
| 20260509221632 | 11 | 203 | 0.0 | 0.0 | 0.48 | 1.04 | 1.04 | 95 | 1012.7 |
| 20260509221125 | 11 | 203 | 0.0 | 0.0 | 0.48 | 1.02 | 1.04 | 95 | 1012.7 |
| 20260509220114 | 11 | 205 | 0.0 | 0.0 | 0.48 | 0.94 | 0.94 | 95 | 1012.9 |
| 20260509215614 | 11 | 205 | 0.0 | 0.0 | 0.43 | 0.89 | 0.91 | 95 | 1012.9 |
| 20260509215114 | 11 | 205 | 0.0 | 0.0 | 0.43 | 0.86 | 0.86 | 94 | 1013.0 |
| 20260509214111 | 11 | 205 | 0.0 | 0.0 | 0.38 | 0.76 | 0.79 | 94 | 1013.0 |
| 20260509213609 | 11 | 154 | 0.0 | 0.0 | 0.36 | 0.74 | 0.74 | 94 | 1012.9 |
| 20260509213108 | 11 | 155 | 0.0 | 0.0 | 0.30 | 0.69 | 0.69 | 94 | 1013.2 |
| 20260509212608 | 11 | 132 | 0.0 | 0.0 | 0.23 | 0.61 | 0.64 | 94 | 1013.2 |
| 20260509212105 | 11 | 132 | 0.0 | 0.0 | 0.20 | 0.58 | 0.58 | 94 | 1013.2 |
| 20260509211606 | 11 | 132 | 0.0 | 0.0 | 0.18 | 0.56 | 0.56 | 94 | 1013.1 |
| 20260509211106 | 12 | 132 | 0.0 | 0.0 | 0.15 | 0.53 | 0.53 | 94 | 1013.2 |
| 20260509210605 | 12 | 132 | 0.0 | 0.0 | 0.10 | 0.48 | 0.48 | 94 | 1013.3 |
| 20260509210107 | 12 | 170 | 0.0 | 0.0 | 0.10 | 0.46 | 0.46 | 94 | 1013.2 |
| 20260509205604 | 12 | 169 | 0.0 | 0.0 | 0.10 | 0.46 | 0.46 | 94 | 1013.1 |
| 20260509204605 | 12 | 170 | 0.0 | 0.0 | 0.08 | 0.41 | 0.41 | 94 | 1013.2 |